Time,TemperatureF,DewpointF,PressureIn,WindDirection,WindDirectionDegrees,WindSpeedMPH,WindSpeedGustMPH,Humidity,HourlyPrecipIn,Conditions,Clouds,dailyrainin,SoftwareType,DateUTC
2013-09-11 00:24:00,76.0,72.0,-100.00,SSW,195,5.0,7.0,86,0.00,,,-99.99,,2013-09-11 04:24:00,
2013-09-11 00:54:00,76.0,72.0,-100.00,SSW,200,4.0,6.0,85,0.00,,,-99.99,,2013-09-11 04:54:00,
2013-09-11 01:03:00,76.0,72.0,-100.00,SSW,200,4.0,6.0,85,0.00,,,-99.99,,2013-09-11 05:03:00,
2013-09-11 01:23:00,77.0,72.0,-100.00,SSW,205,4.0,4.0,84,0.00,,,-99.99,,2013-09-11 05:23:00,
2013-09-11 01:53:00,75.0,71.0,-100.00,SSW,195,2.0,3.0,88,0.00,,,-99.99,,2013-09-11 05:53:00,
2013-09-11 02:22:00,75.0,71.0,-100.00,SW,215,2.0,4.0,89,0.00,,,-99.99,,2013-09-11 06:22:00,
2013-09-11 02:52:00,74.0,71.0,-100.00,South,185,2.0,3.0,90,0.00,,,-99.99,,2013-09-11 06:52:00,
2013-09-11 03:23:00,73.0,71.0,-100.00,South,175,2.0,3.0,92,0.00,,,-99.99,,2013-09-11 07:23:00,
2013-09-11 03:52:00,73.0,71.0,-100.00,South,185,4.0,6.0,93,0.00,,,-99.99,,2013-09-11 07:52:00,
2013-09-11 04:22:00,73.0,70.0,-100.00,South,185,3.0,5.0,92,0.00,,,-99.99,,2013-09-11 08:22:00,
2013-09-11 04:52:00,72.0,70.0,-100.00,South,185,4.0,5.0,95,0.00,,,-99.99,,2013-09-11 08:52:00,
2013-09-11 05:21:00,72.0,70.0,-100.00,SW,215,4.0,6.0,94,0.00,,,-99.99,,2013-09-11 09:21:00,
2013-09-11 05:53:00,72.0,70.0,-100.00,SSW,195,4.0,7.0,94,0.00,,,-99.99,,2013-09-11 09:53:00,
2013-09-11 06:23:00,72.0,70.0,-100.00,SSW,195,6.0,7.0,94,0.00,,,-99.99,,2013-09-11 10:23:00,
2013-09-11 06:53:00,71.0,70.0,-100.00,SSW,195,5.0,7.0,94,0.00,,,-99.99,,2013-09-11 10:53:00,
2013-09-11 07:21:00,71.0,69.0,-100.00,SW,215,3.0,6.0,94,0.00,,,-99.99,,2013-09-11 11:21:00,
2013-09-11 07:52:00,71.0,69.0,-100.00,SW,215,4.0,6.0,94,0.00,,,-99.99,,2013-09-11 11:52:00,
2013-09-11 08:21:00,71.0,69.0,-100.00,SW,215,2.0,6.0,93,0.00,,,-99.99,,2013-09-11 12:21:00,
2013-09-11 08:52:00,73.0,70.0,-100.00,SW,225,4.0,6.0,90,0.00,,,-99.99,,2013-09-11 12:52:00,
2013-09-11 09:22:00,74.0,69.0,-100.00,SW,220,6.0,9.0,86,0.00,,,-99.99,,2013-09-11 13:22:00,
2013-09-11 09:52:00,76.0,70.0,-100.00,SW,225,6.0,11.0,81,0.00,,,-99.99,,2013-09-11 13:52:00,
2013-09-11 10:22:00,78.0,70.0,-100.00,SW,225,6.0,9.0,77,0.00,,,-99.99,,2013-09-11 14:22:00,
2013-09-11 10:52:00,79.0,70.0,-100.00,SW,235,6.0,9.0,74,0.00,,,-99.99,,2013-09-11 14:52:00,
2013-09-11 11:22:00,81.0,71.0,-100.00,SW,215,6.0,11.0,72,0.00,,,-99.99,,2013-09-11 15:22:00,
2013-09-11 11:54:00,82.0,71.0,-100.00,SW,220,4.0,8.0,69,0.00,,,-99.99,,2013-09-11 15:54:00,
2013-09-11 12:23:00,83.0,71.0,-100.00,SW,230,7.0,11.0,66,0.00,,,-99.99,,2013-09-11 16:23:00,
2013-09-11 12:53:00,83.0,72.0,-100.00,West,260,3.0,9.0,70,0.00,,,-99.99,,2013-09-11 16:53:00,
2013-09-11 13:23:00,85.0,72.0,-100.00,South,190,6.0,11.0,65,0.00,,,-99.99,,2013-09-11 17:23:00,
2013-09-11 13:52:00,85.0,72.0,-100.00,WSW,255,4.0,11.0,65,0.00,,,-99.99,,2013-09-11 17:52:00,
2013-09-11 17:22:00,80.0,71.0,-100.00,SSW,210,9.0,12.0,75,0.00,,,-99.99,,2013-09-11 21:22:00,
2013-09-11 17:54:00,81.0,72.0,-100.00,SSW,200,4.0,7.0,73,0.00,,,-99.99,,2013-09-11 21:54:00,
2013-09-11 19:22:00,77.0,72.0,-100.00,South,190,7.0,7.0,83,0.00,,,-99.99,,2013-09-11 23:22:00,
2013-09-11 19:53:00,78.0,71.0,-100.00,South,185,6.0,8.0,81,0.00,,,-99.99,,2013-09-11 23:53:00,
2013-09-11 20:22:00,76.0,71.0,-100.00,South,170,7.0,10.0,84,0.00,,,-99.99,,2013-09-12 00:22:00,
2013-09-11 20:52:00,76.0,71.0,-100.00,South,180,7.0,12.0,86,0.00,,,-99.99,,2013-09-12 00:52:00,
2013-09-11 21:52:00,74.0,70.0,-100.00,South,180,7.0,10.0,88,0.00,,,-99.99,,2013-09-12 01:52:00,
2013-09-11 22:22:00,73.0,70.0,-100.00,South,190,7.0,9.0,89,0.00,,,-99.99,,2013-09-12 02:22:00,
2013-09-11 23:22:00,73.0,69.0,-100.00,South,185,7.0,9.0,90,0.00,,,-99.99,,2013-09-12 03:22:00,
2013-09-11 23:55:00,73.0,70.0,-100.00,SSW,195,7.0,9.0,90,0.00,,,-99.99,,2013-09-12 03:55:00,